Regional Weather Roundup
Issued by NWS

Home | Current Version | Previous Version | Text Only | Print | Product List | Glossary On
Versions: 1 2 3 4 5 6 7 8 9 10 11 12 13 14 15 16 17 18 19 20 21 22 23 24 25 26 27 28 29 30 31 32 33 34 35 36 37 38 39 40 41 42 43 44 45 46 47 48 49 50
000
ASUS43 KOAX 230102
RWRNE

WEATHER ROUNDUP FOR NEBRASKA
NATIONAL WEATHER SERVICE OMAHA NE
800 PM CDT TUE APR 22 2014

NOTES: SATELLITE DATA IS BEING USED TO AUGMENT CLOUD COVER ABOVE
       12000 FEET.
       "FAIR" INDICATES FEW OR NO CLOUDS BELOW 12,000 FEET WITH NO
       SIGNIFICANT WEATHER AND/OR OBSTRUCTIONS TO VISIBILITY.

  * THESE STATIONS DO NOT REPORT WEATHER SUCH AS RAIN...SNOW OR FOG.

NEZ001>004-019>022-054>056-230200-
NEBRASKA PANHANDLE

CITY           SKY/WX    TMP DP  RH WIND       PRES   REMARKS
SCOTTSBLUFF    LGT RAIN  76  36  23 VRB5G24   29.67S
ALLIANCE       MOCLDY    73  37  27 S10       29.64F
CHADRON        CLOUDY    64  54  69 E12       29.65F
KIMBALL        MOCLDY    69  31  24 S9        29.68F
SIDNEY         PTCLDY    75  34  22 S13       29.68F
$$

NEZ057>060-069>072-079>082-230200-
SOUTHWEST NEBRASKA

CITY           SKY/WX    TMP DP  RH WIND       PRES   REMARKS
NORTH PLATTE   PTCLDY    70  30  22 SE15G26   29.74F
IMPERIAL       PTCLDY    73  42  32 SE26G37   29.70F
LEXINGTON      PTCLDY    71  35  26 SE20G26   29.79F
MCCOOK         CLEAR     72  37  28 SE23G33   29.75F
OGALLALA       PTCLDY    74  39  28 SE22G33   29.68F
$$

NEZ005>010-023>029-035>040-094-230200-
NORTH CENTRAL NEBRASKA

CITY           SKY/WX    TMP DP  RH WIND       PRES   REMARKS
VALENTINE      PTCLDY    71  34  25 SE13      29.72S
AINSWORTH      CLEAR     69  34  27 S20G28    29.75F
BROKEN BOW     PTCLDY    66  34  30 SE18      29.80F
O`NEILL        PTCLDY    67  26  21 SE15G23   29.84F
ORD            CLEAR     66  32  28 SE14      29.83F
THEDFORD       PTCLDY    72  33  23 S21G30    29.74F
$$

NEZ041-046>049-061>064-073>077-083>087-230200-
SOUTH CENTRAL NEBRASKA

CITY           SKY/WX    TMP DP  RH WIND       PRES   REMARKS
GRAND ISLAND   PTCLDY    67  32  27 SE16      29.88F
AURORA         MOCLDY    67  32  27 SE16G22   29.89F
HASTINGS       PTCLDY    68  29  23 SE15G25   29.86F
HEBRON         CLOUDY    67  29  24 SE13      29.92S
HOLDREGE       CLEAR     67  32  26 SE23      29.82F
KEARNEY *      CLEAR     66  34  30 SE20G26   29.85S
YORK           MOCLDY    66  30  26 SE14      29.92S
$$

NEZ011>018-030>034-042>045-230200-
NORTHEAST NEBRASKA

CITY           SKY/WX    TMP DP  RH WIND       PRES   REMARKS
NORFOLK        PTCLDY    65  31  28 SE15      29.90F
ALBION         CLEAR     65  30  26 SE12      29.89S
BLAIR          CLOUDY    64  32  30 SE12      29.96S
COLUMBUS *     CLOUDY    66  34  30 SE14      29.93F
FREMONT        CLOUDY    65  31  27 SE12      29.96S
TEKAMAH        CLOUDY    65  31  28 SE13      29.96S
$$

NEZ050>053-065>068-078-088>093-230200-
SOUTHEAST NEBRASKA

CITY           SKY/WX    TMP DP  RH WIND       PRES   REMARKS
LINCOLN        CLOUDY    69  30  23 SE16      29.95S
OMAHA EPPLEY   CLOUDY    66  32  28 SE10      29.96F
BEATRICE       MOCLDY    67  30  25 SE9       29.94S
FALLS CITY     MOCLDY    63  34  33 E8        29.97F
NEBRASKA CITY  MOCLDY    65  30  26 SE8       29.96F
PLATTSMOUTH    MOCLDY    64  30  27 E8        29.97S
$$

NEZ044-045-051>053-067-230200-
OMAHA AREA

CITY           SKY/WX    TMP DP  RH WIND       PRES   REMARKS
OMAHA EPPLEY   CLOUDY    66  32  28 SE10      29.96F
BLAIR          CLOUDY    64  32  30 SE12      29.96S
FREMONT        CLOUDY    65  31  27 SE12      29.96S
MILLARD        MOCLDY    65  33  29 SE8       29.95F
OFFUTT AFB     MOCLDY    64  35  34 E10       29.96F
PLATTSMOUTH    MOCLDY    64  30  27 E8        29.97S
WAHOO          MOCLDY    64  30  27 SE10      29.95S
$$



USA.gov is the U.S. government's official web portal to all federal, state and local government web resources and services.